Location: Gołdap
(54.3084°N, 22.3049°E)
Time: 23:50:59
(UTC+02:00)

ISS - Visible Passes

Search period start: 20 September 2018 00:00
Search period end: 30 September 2018 00:00
Orbit: 403 x 408 km, 51.6° (Epoch: 20 September)

Date Brightness Start Highest point End Pass type
(mag) Time Alt. Az. Time Alt. Az. Time Alt. Az.
23 Sep -1.6 19:38:23 10° SSE 19:39:35 12° SE 19:39:35 12° SE visible
24 Sep -2.2 20:20:59 10° SW 20:22:52 23° S 20:22:52 23° S visible
25 Sep -2.2 19:29:37 10° SSW 19:32:07 20° SSE 19:33:16 17° ESE visible
25 Sep -1.4 21:04:58 10° WSW 21:05:57 18° WSW 21:05:57 18° WSW visible
26 Sep -3.2 20:13:14 10° SW 20:16:13 38° S 20:16:13 38° S visible
27 Sep -2.7 19:21:35 10° SW 19:24:32 30° SSE 19:26:24 17° ESE visible
27 Sep -1.9 20:57:29 10° WSW 20:59:05 25° WSW 20:59:05 25° WSW visible
28 Sep -3.5 20:05:38 10° WSW 20:08:51 49° S 20:09:10 47° SSE visible
29 Sep -3.2 19:13:50 10° WSW 19:16:59 42° SSE 19:19:13 17° E visible
29 Sep -2.1 20:50:01 10° W 20:51:53 29° WSW 20:51:53 29° WSW visible
